Flag for Austria Weather past 2 weeks in Oberpullendorf, Burgenland, Austria

Now
66 °F

Broken clouds.


Feels Like: 66 °F
Forecast: 60 / 76 °F
Wind: 12 mph from Northwest

Location: Vienna Schwechat-Flughafen Airport

Current Time: Jul 23, 2014 at 10:15:58 AM

Latest Report: Jul 23, 2014 at 7:50 AM


Visibility: N/A

Pressure: 29.89 "Hg

Humidity: 83%

Dew point: 61 °F

Location of OberpullendorfLocation

Historic Weather in Oberpullendorf — Graph

°F

Oberpullendorf temperature yesterday

Maximum temperature yesterday: 73 °F (at 12:50 PM)
Minimum temperature yesterday: 66 °F (at 5:50 AM)
Average temperature yesterday: 69 °F

Past Weeks' High & Low Weather Summary

 TemperatureHumidityPressure
High90 °F (Jul 20, 3:20 PM)100% (Jul 13, 10:50 PM)30.12 "Hg (Jul 13, 10:50 PM)
Low57 °F (Jul 10, 4:50 AM)29% (Jul 17, 3:50 PM)29.62 "Hg (Jul 8, 5:20 PM)
Average71 °F67%29.90 "Hg
* Reported Jul 8 7:20 AM — Jul 23 7:20 AM, Oberpullendorf, Weather by CustomWeather, © 2014

Note: Actual official high and low records may vary slightly from our data, if they occured in-between our weather recording intervals... More about our weather records

Advertising

Oberpullendorf weather history for previous 24 hours

 ConditionsComfort  
Time TempWeatherWind HumidityBarometerVisibility
7:20 AM
Jul 23
66 °FPartly sunny.8 mph83%29.89 "HgN/A
6:50 AM66 °FPartly sunny.9 mph78%29.89 "HgN/A
6:20 AM64 °FSunny.10 mph83%29.89 "Hg10 mi
5:50 AM64 °FClear.9 mph88%29.89 "Hg10 mi
5:20 AM64 °FClear.9 mph88%29.89 "Hg10 mi
4:50 AM64 °FClear.9 mph88%29.89 "Hg10 mi
4:20 AM64 °FClear.8 mph88%29.89 "Hg10 mi
3:50 AM64 °FClear.9 mph88%29.86 "Hg10 mi
3:20 AM66 °FClear.10 mph88%29.86 "Hg10 mi
2:50 AM66 °FClear.12 mph88%29.86 "Hg10 mi
2:20 AM66 °FClear.10 mph94%29.86 "Hg10 mi
1:50 AM68 °FPassing clouds.10 mph94%29.89 "HgN/A
6:50 PM
Jul 22
68 °FPartly sunny.3 mph94%29.86 "HgN/A
6:20 PM68 °FLight rain. Broken clouds.6 mph100%29.83 "HgN/A
5:50 PM68 °FLight rain. Broken clouds.9 mph94%29.83 "Hg5 mi
5:20 PM68 °FLight rain. Partly sunny.9 mph94%29.83 "Hg4 mi
4:50 PM68 °FLight rain. Partly sunny.8 mph94%29.83 "HgN/A
4:20 PM68 °FBroken clouds.7 mph94%29.83 "HgN/A
3:50 PM68 °FRain showers. Partly sunny.7 mph94%29.83 "HgN/A
3:20 PM66 °FRain showers. Partly sunny.10 mph94%29.83 "Hg5 mi
2:50 PM72 °FThundershowers. Partly sunny.9 mph83%29.83 "HgN/A
1:50 PM73 °FSprinkles. Partly sunny.13 mph74%29.83 "HgN/A
1:20 PM73 °FBroken clouds.12 mph74%29.83 "HgN/A
12:50 PM73 °FBroken clouds.12 mph74%29.83 "HgN/A
12:20 PM72 °FBroken clouds.12 mph78%29.83 "HgN/A
11:50 AM72 °FBroken clouds.13 mph78%29.83 "HgN/A
11:20 AM72 °FBroken clouds.8 mph78%29.83 "HgN/A
10:50 AM72 °FBroken clouds.7 mph78%29.83 "HgN/A
10:20 AM70 °FPartly sunny.7 mph78%29.83 "HgN/A
Weather by CustomWeather, © 2014

See weather overviewHow to use our weather pages